Time,TemperatureF,DewpointF,PressureIn,WindDirection,WindDirectionDegrees,WindSpeedMPH,WindSpeedGustMPH,Humidity,HourlyPrecipIn,Conditions,Clouds,dailyrainin,SoftwareType,DateUTC
2013-07-31 00:01:00,68.0,63.0,30.17,ENE,74,2.0,2.0,84,0.00,,SCT110,0.00,VWS V14.01,2013-07-31 04:01:00,
2013-07-31 00:07:00,68.0,63.0,30.17,ENE,75,1.0,1.0,84,0.00,,SCT110,0.00,VWS V14.01,2013-07-31 04:07:00,
2013-07-31 00:12:00,68.0,63.0,30.17,East,87,0.0,2.0,84,0.00,,SCT110,0.00,VWS V14.01,2013-07-31 04:12:00,
2013-07-31 00:17:00,68.0,63.0,30.17,East,98,0.0,1.0,84,0.00,,SCT110,0.00,VWS V14.01,2013-07-31 04:17:00,
2013-07-31 00:22:00,67.9,62.9,30.17,East,100,0.0,1.0,84,0.00,,SCT110,0.00,VWS V14.01,2013-07-31 04:22:00,
2013-07-31 00:27:00,67.8,63.1,30.17,ESE,113,0.0,1.0,85,0.00,,SCT110,0.00,VWS V14.01,2013-07-31 04:27:00,
2013-07-31 00:32:00,67.8,63.1,30.17,ESE,103,1.0,2.0,85,0.00,,SCT095,0.00,VWS V14.01,2013-07-31 04:32:00,
2013-07-31 00:37:00,67.7,63.0,30.17,East,100,2.0,2.0,85,0.00,,SCT095,0.00,VWS V14.01,2013-07-31 04:37:00,
2013-07-31 00:42:00,67.5,63.2,30.17,East,101,0.0,2.0,86,0.00,,SCT095,0.00,VWS V14.01,2013-07-31 04:42:00,
2013-07-31 00:47:00,67.4,63.1,30.17,ENE,75,1.0,1.0,86,0.00,,BKN095,0.00,VWS V14.01,2013-07-31 04:47:00,
2013-07-31 00:52:00,67.2,62.9,30.17,East,79,2.0,2.0,86,0.00,,BKN095,0.00,VWS V14.01,2013-07-31 04:52:00,
2013-07-31 00:57:00,67.1,63.1,30.17,East,83,1.0,2.0,87,0.00,,BKN095,0.00,VWS V14.01,2013-07-31 04:57:00,
2013-07-31 01:02:00,66.9,62.9,30.17,East,80,2.0,2.0,87,0.00,,SCT095,0.00,VWS V14.01,2013-07-31 05:02:00,
2013-07-31 01:07:00,66.8,62.8,30.17,East,84,0.0,2.0,87,0.00,,SCT095,0.00,VWS V14.01,2013-07-31 05:07:00,
2013-07-31 01:12:00,66.8,62.8,30.17,ENE,60,1.0,2.0,87,0.00,,SCT095,0.00,VWS V14.01,2013-07-31 05:12:00,
2013-07-31 01:17:00,66.7,62.7,30.17,East,80,0.0,2.0,87,0.00,,SCT095,0.00,VWS V14.01,2013-07-31 05:17:00,
2013-07-31 01:22:00,66.7,62.7,30.17,East,91,0.0,1.0,87,0.00,,SCT095,0.00,VWS V14.01,2013-07-31 05:22:00,
2013-07-31 01:27:00,66.6,62.6,30.17,ENE,70,0.0,1.0,87,0.00,,SCT095,0.00,VWS V14.01,2013-07-31 05:27:00,
2013-07-31 01:32:00,66.6,62.6,30.17,East,79,0.0,1.0,87,0.00,,BKN100,0.00,VWS V14.01,2013-07-31 05:32:00,
2013-07-31 01:37:00,66.6,62.6,30.17,East,79,1.0,1.0,87,0.00,,BKN100,0.00,VWS V14.01,2013-07-31 05:37:00,
2013-07-31 01:42:00,66.6,62.9,30.17,ENE,74,0.0,0.0,88,0.00,,BKN100,0.00,VWS V14.01,2013-07-31 05:42:00,
2013-07-31 01:47:00,66.5,62.8,30.16,ENE,68,0.0,0.0,88,0.00,,SCT100,0.00,VWS V14.01,2013-07-31 05:47:00,
2013-07-31 01:52:00,66.5,62.8,30.16,East,81,1.0,2.0,88,0.00,,SCT100,0.00,VWS V14.01,2013-07-31 05:52:00,
2013-07-31 01:57:00,66.5,62.8,30.16,East,84,2.0,2.0,88,0.00,,SCT100,0.00,VWS V14.01,2013-07-31 05:57:00,
2013-07-31 02:02:00,66.4,62.7,30.16,East,81,1.0,1.0,88,0.00,,SCT075,0.00,VWS V14.01,2013-07-31 06:02:00,
2013-07-31 02:07:00,66.4,62.7,30.16,East,81,2.0,2.0,88,0.00,,SCT075,0.00,VWS V14.01,2013-07-31 06:07:00,
2013-07-31 02:12:00,66.4,62.7,30.16,ENE,77,1.0,2.0,88,0.00,,SCT075,0.00,VWS V14.01,2013-07-31 06:12:00,
2013-07-31 02:17:00,66.4,62.7,30.16,ENE,73,1.0,2.0,88,0.00,,SCT075,0.00,VWS V14.01,2013-07-31 06:17:00,
2013-07-31 02:22:00,66.4,63.1,30.16,East,96,0.0,1.0,89,0.00,,SCT075,0.00,VWS V14.01,2013-07-31 06:22:00,
2013-07-31 02:27:00,66.4,63.1,30.16,East,101,0.0,0.0,89,0.00,,SCT075,0.00,VWS V14.01,2013-07-31 06:27:00,
2013-07-31 02:32:00,66.4,63.1,30.16,East,101,0.0,0.0,89,0.00,,BKN110,0.00,VWS V14.01,2013-07-31 06:32:00,
2013-07-31 02:37:00,66.4,63.1,30.16,East,86,1.0,2.0,89,0.00,,BKN110,0.00,VWS V14.01,2013-07-31 06:37:00,
2013-07-31 02:42:00,66.4,63.1,30.16,ENE,77,2.0,2.0,89,0.00,,BKN110,0.00,VWS V14.01,2013-07-31 06:42:00,
2013-07-31 02:47:00,66.4,63.1,30.16,East,95,1.0,2.0,89,0.00,,BKN110,0.00,VWS V14.01,2013-07-31 06:47:00,
2013-07-31 02:52:00,66.5,63.2,30.15,ESE,113,2.0,2.0,89,0.00,,BKN110,0.00,VWS V14.01,2013-07-31 06:52:00,
2013-07-31 02:57:00,66.4,63.1,30.15,East,79,0.0,2.0,89,0.00,,BKN110,0.00,VWS V14.01,2013-07-31 06:57:00,
2013-07-31 03:02:00,66.5,63.2,30.15,ESE,108,1.0,1.0,89,0.00,,BKN110,0.00,VWS V14.01,2013-07-31 07:02:00,
2013-07-31 03:07:00,66.5,63.2,30.15,East,82,0.0,2.0,89,0.00,,BKN110,0.00,VWS V14.01,2013-07-31 07:07:00,
2013-07-31 03:12:00,66.5,63.2,30.15,East,89,0.0,0.0,89,0.00,,BKN110,0.00,VWS V14.01,2013-07-31 07:12:00,
2013-07-31 03:17:00,66.4,63.1,30.15,ENE,75,0.0,0.0,89,0.00,,BKN110,0.00,VWS V14.01,2013-07-31 07:17:00,
2013-07-31 03:22:00,66.4,63.1,30.15,ENE,68,1.0,2.0,89,0.00,,BKN110,0.00,VWS V14.01,2013-07-31 07:22:00,
2013-07-31 03:27:00,66.4,63.1,30.15,ENE,67,0.0,1.0,89,0.00,,BKN110,0.00,VWS V14.01,2013-07-31 07:27:00,
2013-07-31 03:32:00,66.4,63.1,30.15,East,94,1.0,1.0,89,0.00,,BKN120,0.00,VWS V14.01,2013-07-31 07:32:00,
2013-07-31 03:37:00,66.4,63.1,30.15,ESE,108,0.0,0.0,89,0.00,,BKN120,0.00,VWS V14.01,2013-07-31 07:37:00,
2013-07-31 03:42:00,66.4,63.1,30.15,East,96,1.0,1.0,89,0.00,,BKN120,0.00,VWS V14.01,2013-07-31 07:42:00,
2013-07-31 03:47:00,66.4,63.1,30.14,East,94,1.0,2.0,89,0.00,,OVC080,0.00,VWS V14.01,2013-07-31 07:47:00,
2013-07-31 03:52:00,66.5,63.2,30.15,East,95,2.0,2.0,89,0.00,,OVC080,0.00,VWS V14.01,2013-07-31 07:52:00,
2013-07-31 03:57:00,66.5,63.2,30.15,ENE,68,1.0,2.0,89,0.00,,OVC080,0.00,VWS V14.01,2013-07-31 07:57:00,
2013-07-31 04:02:00,66.5,63.2,30.15,East,93,1.0,1.0,89,0.00,,OVC080,0.00,VWS V14.01,2013-07-31 08:02:00,
2013-07-31 04:07:00,66.5,63.2,30.14,ENE,75,1.0,2.0,89,0.00,,OVC080,0.00,VWS V14.01,2013-07-31 08:07:00,
2013-07-31 04:12:00,66.5,63.2,30.14,East,91,2.0,3.0,89,0.00,,OVC080,0.00,VWS V14.01,2013-07-31 08:12:00,
2013-07-31 04:17:00,66.5,63.2,30.14,ENE,75,2.0,2.0,89,0.00,,OVC080,0.00,VWS V14.01,2013-07-31 08:17:00,
2013-07-31 04:22:00,66.4,63.1,30.14,East,91,3.0,3.0,89,0.00,,OVC080,0.00,VWS V14.01,2013-07-31 08:22:00,
2013-07-31 04:27:00,66.4,63.4,30.14,East,100,1.0,2.0,90,0.00,,OVC080,0.00,VWS V14.01,2013-07-31 08:27:00,
2013-07-31 04:32:00,66.3,63.3,30.14,ENE,74,1.0,2.0,90,0.00,,OVC080,0.00,VWS V14.01,2013-07-31 08:32:00,
2013-07-31 04:37:00,66.2,63.2,30.14,East,90,2.0,2.0,90,0.00,,OVC080,0.00,VWS V14.01,2013-07-31 08:37:00,
2013-07-31 04:42:00,66.1,63.1,30.14,East,79,2.0,2.0,90,0.00,,OVC080,0.00,VWS V14.01,2013-07-31 08:42:00,
2013-07-31 04:47:00,66.1,63.1,30.13,ENE,60,1.0,3.0,90,0.00,,BKN080,0.00,VWS V14.01,2013-07-31 08:47:00,
2013-07-31 04:52:00,66.1,63.1,30.13,East,94,2.0,3.0,90,0.00,,BKN080,0.00,VWS V14.01,2013-07-31 08:52:00,
2013-07-31 04:57:00,66.1,63.1,30.13,East,89,0.0,2.0,90,0.00,,BKN080,0.00,VWS V14.01,2013-07-31 08:57:00,
2013-07-31 05:02:00,66.1,63.1,30.13,ENE,77,0.0,1.0,90,0.00,,BKN080,0.00,VWS V14.01,2013-07-31 09:02:00,
2013-07-31 05:07:00,66.1,63.1,30.13,East,98,2.0,2.0,90,0.00,,BKN080,0.00,VWS V14.01,2013-07-31 09:07:00,
2013-07-31 05:12:00,66.1,63.1,30.13,ENE,77,1.0,2.0,90,0.00,,BKN080,0.00,VWS V14.01,2013-07-31 09:12:00,
2013-07-31 05:17:00,66.1,63.4,30.13,ENE,78,0.0,1.0,91,0.00,,BKN080,0.00,VWS V14.01,2013-07-31 09:17:00,
2013-07-31 05:22:00,66.0,63.3,30.13,East,79,0.0,1.0,91,0.00,,BKN080,0.00,VWS V14.01,2013-07-31 09:22:00,
2013-07-31 05:27:00,66.0,63.3,30.13,East,94,1.0,2.0,91,0.00,,BKN080,0.00,VWS V14.01,2013-07-31 09:27:00,
2013-07-31 05:32:00,66.0,63.3,30.13,ESE,105,2.0,2.0,91,0.00,,SCT090,0.00,VWS V14.01,2013-07-31 09:32:00,
2013-07-31 05:37:00,66.0,63.3,30.13,ESE,102,0.0,1.0,91,0.00,,SCT090,0.00,VWS V14.01,2013-07-31 09:37:00,
2013-07-31 05:42:00,65.9,63.2,30.13,East,98,1.0,3.0,91,0.00,,SCT090,0.00,VWS V14.01,2013-07-31 09:42:00,
2013-07-31 05:47:00,65.8,63.1,30.13,East,101,1.0,2.0,91,0.00,,SCT120,0.00,VWS V14.01,2013-07-31 09:47:00,
2013-07-31 05:52:00,65.8,63.1,30.13,ENE,63,1.0,1.0,91,0.00,,SCT120,0.00,VWS V14.01,2013-07-31 09:52:00,
2013-07-31 05:57:00,65.8,63.4,30.14,East,84,0.0,0.0,92,0.00,,SCT120,0.00,VWS V14.01,2013-07-31 09:57:00,
2013-07-31 06:02:00,65.8,63.4,30.14,ENE,60,0.0,0.0,92,0.00,,-RA,0.00,VWS V14.01,2013-07-31 10:02:00,
2013-07-31 06:07:00,65.8,63.4,30.14,ENE,72,0.0,0.0,92,0.00,,-RA,0.00,VWS V14.01,2013-07-31 10:07:00,
2013-07-31 06:12:00,65.7,63.3,30.14,East,81,0.0,0.0,92,0.00,,-RA,0.00,VWS V14.01,2013-07-31 10:12:00,
2013-07-31 06:17:00,65.7,63.3,30.14,SE,132,1.0,1.0,92,0.00,,-RA,0.00,VWS V14.01,2013-07-31 10:17:00,
2013-07-31 06:22:00,65.7,63.3,30.15,SSE,160,0.0,0.0,92,0.00,,-RA,0.00,VWS V14.01,2013-07-31 10:22:00,
2013-07-31 06:27:00,65.6,63.2,30.15,SSW,193,1.0,1.0,92,0.00,,-RA,0.00,VWS V14.01,2013-07-31 10:27:00,
2013-07-31 06:32:00,65.5,63.4,30.15,SSE,160,0.0,0.0,93,0.00,,-RA,0.00,VWS V14.01,2013-07-31 10:32:00,
2013-07-31 06:37:00,65.5,63.4,30.15,SSE,162,0.0,0.0,93,0.00,,-RA,0.00,VWS V14.01,2013-07-31 10:37:00,
2013-07-31 06:42:00,65.5,63.4,30.15,SSE,162,0.0,0.0,93,0.01,,-RA,0.01,VWS V14.01,2013-07-31 10:42:00,
2013-07-31 06:47:00,65.5,63.4,30.15,SSW,198,0.0,0.0,93,0.01,,-RA,0.01,VWS V14.01,2013-07-31 10:47:00,
2013-07-31 06:52:00,65.6,63.5,30.15,SSW,195,1.0,2.0,93,0.01,,-RA,0.01,VWS V14.01,2013-07-31 10:52:00,
2013-07-31 06:57:00,65.6,63.2,30.15,South,181,1.0,1.0,92,0.01,,-RA,0.01,VWS V14.01,2013-07-31 10:57:00,
2013-07-31 07:02:00,65.6,63.2,30.15,SSW,193,1.0,2.0,92,0.01,,BKN120,0.01,VWS V14.01,2013-07-31 11:02:00,
2013-07-31 07:07:00,65.6,63.2,30.15,SSW,193,0.0,0.0,92,0.01,,BKN120,0.01,VWS V14.01,2013-07-31 11:07:00,
2013-07-31 07:12:00,65.5,63.4,30.15,ESE,109,0.0,1.0,93,0.01,,BKN120,0.01,VWS V14.01,2013-07-31 11:12:00,
2013-07-31 07:17:00,65.5,63.4,30.15,SE,136,0.0,0.0,93,0.01,,BKN120,0.01,VWS V14.01,2013-07-31 11:17:00,
2013-07-31 07:22:00,65.5,63.4,30.15,SE,136,0.0,0.0,93,0.01,,BKN120,0.01,VWS V14.01,2013-07-31 11:22:00,
2013-07-31 07:27:00,65.4,63.3,30.15,SE,136,0.0,0.0,93,0.01,,BKN120,0.01,VWS V14.01,2013-07-31 11:27:00,
2013-07-31 07:32:00,65.4,63.3,30.15,South,176,0.0,0.0,93,0.01,,,0.01,VWS V14.01,2013-07-31 11:32:00,
2013-07-31 07:37:00,65.5,63.7,30.14,East,83,2.0,2.0,94,0.01,,,0.01,VWS V14.01,2013-07-31 11:37:00,
2013-07-31 07:42:00,65.6,63.5,30.14,East,98,1.0,2.0,93,0.00,,,0.01,VWS V14.01,2013-07-31 11:42:00,
2013-07-31 07:47:00,65.6,63.5,30.14,ESE,110,0.0,0.0,93,0.00,,,0.01,VWS V14.01,2013-07-31 11:47:00,
2013-07-31 07:52:00,65.7,63.6,30.14,East,94,0.0,0.0,93,0.00,,,0.01,VWS V14.01,2013-07-31 11:52:00,
2013-07-31 07:57:00,65.6,63.5,30.14,NNE,24,0.0,0.0,93,0.00,,,0.01,VWS V14.01,2013-07-31 11:57:00,
2013-07-31 08:02:00,65.6,63.5,30.14,NNE,24,0.0,0.0,93,0.00,,,0.01,VWS V14.01,2013-07-31 12:02:00,
2013-07-31 08:07:00,65.6,63.8,30.14,NNE,24,0.0,0.0,94,0.00,,,0.01,VWS V14.01,2013-07-31 12:07:00,
2013-07-31 08:12:00,65.6,63.8,30.14,NNE,24,0.0,0.0,94,0.00,,,0.01,VWS V14.01,2013-07-31 12:12:00,
2013-07-31 08:17:00,65.6,63.8,30.14,NE,44,0.0,0.0,94,0.00,,,0.01,VWS V14.01,2013-07-31 12:17:00,
2013-07-31 08:22:00,65.9,64.1,30.14,ENE,57,0.0,0.0,94,0.00,,,0.01,VWS V14.01,2013-07-31 12:22:00,
2013-07-31 08:27:00,66.0,63.9,30.14,East,91,0.0,0.0,93,0.00,,,0.01,VWS V14.01,2013-07-31 12:27:00,
2013-07-31 08:32:00,66.1,64.0,30.14,East,88,0.0,0.0,93,0.00,,CLR,0.01,VWS V14.01,2013-07-31 12:32:00,
2013-07-31 08:37:00,66.2,63.8,30.14,SSW,201,0.0,0.0,92,0.00,,CLR,0.01,VWS V14.01,2013-07-31 12:37:00,
2013-07-31 08:42:00,66.5,64.1,30.14,SE,142,0.0,0.0,92,0.00,,CLR,0.01,VWS V14.01,2013-07-31 12:42:00,
2013-07-31 08:48:00,66.6,63.9,30.14,ESE,114,0.0,0.0,91,0.00,,CLR,0.01,VWS V14.01,2013-07-31 12:48:00,
2013-07-31 08:53:00,66.9,64.2,30.14,South,184,0.0,0.0,91,0.00,,CLR,0.01,VWS V14.01,2013-07-31 12:53:00,
2013-07-31 08:58:00,67.1,64.4,30.14,WSW,243,0.0,0.0,91,0.00,,CLR,0.01,VWS V14.01,2013-07-31 12:58:00,
2013-07-31 09:03:00,67.3,64.3,30.14,WSW,243,0.0,0.0,90,0.00,,CLR,0.01,VWS V14.01,2013-07-31 13:03:00,
2013-07-31 09:08:00,67.6,64.6,30.14,WSW,243,0.0,0.0,90,0.00,,CLR,0.01,VWS V14.01,2013-07-31 13:08:00,
2013-07-31 09:13:00,67.8,64.4,30.14,East,84,0.0,0.0,89,0.00,,CLR,0.01,VWS V14.01,2013-07-31 13:13:00,
2013-07-31 09:18:00,67.8,64.4,30.13,ESE,106,0.0,1.0,89,0.00,,CLR,0.01,VWS V14.01,2013-07-31 13:18:00,
2013-07-31 09:23:00,67.8,64.4,30.13,ESE,102,1.0,2.0,89,0.00,,CLR,0.01,VWS V14.01,2013-07-31 13:23:00,
2013-07-31 09:27:00,68.0,64.6,30.13,SE,134,0.0,2.0,89,0.00,,CLR,0.01,VWS V14.01,2013-07-31 13:27:00,
2013-07-31 09:33:00,68.1,64.7,30.13,ESE,113,0.0,0.0,89,0.00,,SCT033,0.01,VWS V14.01,2013-07-31 13:33:00,
2013-07-31 09:38:00,68.2,64.8,30.13,South,170,3.0,4.0,89,0.00,,SCT033,0.01,VWS V14.01,2013-07-31 13:38:00,
2013-07-31 09:43:00,68.3,64.6,30.13,South,173,2.0,4.0,88,0.00,,SCT033,0.01,VWS V14.01,2013-07-31 13:43:00,
2013-07-31 09:48:00,68.4,64.4,30.13,South,188,3.0,3.0,87,0.00,,OVC035,0.01,VWS V14.01,2013-07-31 13:48:00,
2013-07-31 09:53:00,68.5,64.5,30.13,SSE,164,3.0,5.0,87,0.00,,OVC035,0.01,VWS V14.01,2013-07-31 13:53:00,
2013-07-31 09:58:00,68.8,65.1,30.13,SW,224,6.0,6.0,88,0.00,,OVC035,0.01,VWS V14.01,2013-07-31 13:58:00,
2013-07-31 10:03:00,69.0,65.0,30.12,South,186,2.0,5.0,87,0.00,,OVC027,0.01,VWS V14.01,2013-07-31 14:03:00,
2013-07-31 10:08:00,69.4,65.0,30.13,SW,234,4.0,6.0,86,0.00,,OVC027,0.01,VWS V14.01,2013-07-31 14:08:00,
2013-07-31 10:13:00,69.3,64.9,30.13,SW,215,3.0,5.0,86,0.00,,OVC027,0.01,VWS V14.01,2013-07-31 14:13:00,
2013-07-31 10:18:00,69.1,64.7,30.13,SSE,163,2.0,6.0,86,0.00,,OVC027,0.01,VWS V14.01,2013-07-31 14:18:00,
2013-07-31 10:23:00,69.3,65.3,30.13,South,180,4.0,6.0,87,0.00,,OVC027,0.01,VWS V14.01,2013-07-31 14:23:00,
2013-07-31 10:28:00,69.9,65.9,30.12,SSE,162,3.0,4.0,87,0.00,,OVC027,0.01,VWS V14.01,2013-07-31 14:28:00,
2013-07-31 10:33:00,70.5,65.8,30.12,SSE,150,6.0,8.0,85,0.00,,OVC045,0.01,VWS V14.01,2013-07-31 14:33:00,
2013-07-31 10:38:00,70.6,65.5,30.12,SSW,211,4.0,9.0,84,0.00,,OVC045,0.01,VWS V14.01,2013-07-31 14:38:00,
2013-07-31 10:43:00,70.3,65.2,30.12,South,173,0.0,4.0,84,0.00,,OVC045,0.01,VWS V14.01,2013-07-31 14:43:00,
2013-07-31 10:48:00,70.3,65.2,30.12,South,173,0.0,2.0,84,0.00,,OVC045,0.01,VWS V14.01,2013-07-31 14:48:00,
2013-07-31 10:53:00,70.6,65.5,30.12,SW,214,1.0,3.0,84,0.00,,OVC045,0.01,VWS V14.01,2013-07-31 14:53:00,
2013-07-31 10:58:00,70.6,65.2,30.12,SW,226,2.0,4.0,83,0.00,,OVC045,0.01,VWS V14.01,2013-07-31 14:58:00,
2013-07-31 11:02:00,70.9,65.8,30.12,South,186,2.0,4.0,84,0.00,,OVC045,0.01,VWS V14.01,2013-07-31 15:02:00,
2013-07-31 11:07:00,71.2,65.4,30.12,South,173,2.0,5.0,82,0.00,,OVC045,0.01,VWS V14.01,2013-07-31 15:07:00,
2013-07-31 11:13:00,71.2,65.4,30.12,SW,229,6.0,8.0,82,0.00,,OVC045,0.01,VWS V14.01,2013-07-31 15:13:00,
2013-07-31 11:18:00,71.1,65.7,30.12,SSW,203,4.0,7.0,83,0.00,,OVC045,0.01,VWS V14.01,2013-07-31 15:18:00,
2013-07-31 11:23:00,70.8,65.4,30.12,West,264,3.0,8.0,83,0.00,,OVC045,0.01,VWS V14.01,2013-07-31 15:23:00,
2013-07-31 11:28:00,70.7,65.3,30.12,South,179,4.0,7.0,83,0.00,,OVC045,0.01,VWS V14.01,2013-07-31 15:28:00,
2013-07-31 11:33:00,70.8,65.7,30.12,SSW,212,1.0,5.0,84,0.00,,OVC045,0.01,VWS V14.01,2013-07-31 15:33:00,
2013-07-31 11:38:00,71.2,65.8,30.11,SSW,204,2.0,3.0,83,0.00,,OVC045,0.01,VWS V14.01,2013-07-31 15:38:00,
2013-07-31 11:43:00,71.5,66.1,30.11,SSW,211,2.0,4.0,83,0.00,,OVC045,0.01,VWS V14.01,2013-07-31 15:43:00,
2013-07-31 11:48:00,71.7,65.6,30.11,West,263,1.0,5.0,81,0.00,,OVC034,0.01,VWS V14.01,2013-07-31 15:48:00,
2013-07-31 11:53:00,71.8,65.7,30.11,SSE,160,4.0,5.0,81,0.00,,OVC034,0.01,VWS V14.01,2013-07-31 15:53:00,
2013-07-31 11:58:00,72.3,65.8,30.11,SSW,210,6.0,8.0,80,0.00,,OVC034,0.01,VWS V14.01,2013-07-31 15:58:00,
2013-07-31 12:03:00,72.2,66.1,30.10,SW,217,3.0,5.0,81,0.00,,OVC040,0.01,VWS V14.01,2013-07-31 16:03:00,
2013-07-31 12:08:00,72.2,65.3,30.10,SSW,195,6.0,7.0,79,0.00,,OVC040,0.01,VWS V14.01,2013-07-31 16:08:00,
2013-07-31 12:13:00,72.0,65.5,30.10,SW,229,5.0,7.0,80,0.00,,OVC040,0.01,VWS V14.01,2013-07-31 16:13:00,
2013-07-31 12:18:00,71.7,65.6,30.10,WSW,239,4.0,6.0,81,0.00,,OVC040,0.01,VWS V14.01,2013-07-31 16:18:00,
2013-07-31 12:23:00,72.0,65.9,30.10,South,183,3.0,4.0,81,0.00,,OVC040,0.01,VWS V14.01,2013-07-31 16:23:00,
2013-07-31 12:28:00,71.9,64.7,30.10,SW,235,4.0,6.0,78,0.00,,OVC040,0.01,VWS V14.01,2013-07-31 16:28:00,
2013-07-31 12:33:00,71.5,64.7,30.09,SSE,162,7.0,7.0,79,0.00,,OVC040,0.01,VWS V14.01,2013-07-31 16:33:00,
2013-07-31 12:38:00,71.2,64.7,30.09,SW,219,3.0,9.0,80,0.00,,OVC040,0.01,VWS V14.01,2013-07-31 16:38:00,
2013-07-31 12:43:00,70.8,64.3,30.09,SSW,205,3.0,9.0,80,0.00,,OVC040,0.01,VWS V14.01,2013-07-31 16:43:00,
2013-07-31 12:48:00,70.7,64.6,30.09,South,183,2.0,7.0,81,0.00,,OVC032,0.01,VWS V14.01,2013-07-31 16:48:00,
2013-07-31 12:53:00,70.6,64.5,30.09,SW,225,4.0,5.0,81,0.00,,OVC032,0.01,VWS V14.01,2013-07-31 16:53:00,
2013-07-31 12:58:00,70.5,64.8,30.09,SSW,210,4.0,5.0,82,0.00,,OVC032,0.01,VWS V14.01,2013-07-31 16:58:00,
2013-07-31 13:03:00,70.4,64.7,30.09,SW,228,2.0,9.0,82,0.00,,OVC043,0.01,VWS V14.01,2013-07-31 17:03:00,
2013-07-31 13:08:00,70.4,64.7,30.09,SSW,208,1.0,5.0,82,0.00,,OVC043,0.01,VWS V14.01,2013-07-31 17:08:00,
2013-07-31 13:13:00,70.5,64.8,30.09,WSW,250,5.0,6.0,82,0.00,,OVC043,0.01,VWS V14.01,2013-07-31 17:13:00,
2013-07-31 13:18:00,70.4,65.0,30.09,SW,224,4.0,6.0,83,0.00,,OVC043,0.01,VWS V14.01,2013-07-31 17:18:00,
2013-07-31 13:23:00,70.7,65.6,30.08,SSE,156,0.0,2.0,84,0.00,,OVC043,0.01,VWS V14.01,2013-07-31 17:23:00,
2013-07-31 13:28:00,71.1,65.3,30.08,SW,224,1.0,4.0,82,0.00,,OVC043,0.01,VWS V14.01,2013-07-31 17:28:00,
2013-07-31 13:33:00,71.7,65.9,30.08,SSE,162,4.0,4.0,82,0.00,,OVC045,0.01,VWS V14.01,2013-07-31 17:33:00,
2013-07-31 13:38:00,71.9,65.8,30.08,SSW,211,3.0,5.0,81,0.00,,OVC045,0.01,VWS V14.01,2013-07-31 17:38:00,
2013-07-31 13:43:00,72.1,65.6,30.08,South,187,3.0,4.0,80,0.00,,OVC045,0.01,VWS V14.01,2013-07-31 17:43:00,
2013-07-31 13:48:00,72.2,65.0,30.08,SSW,201,3.0,7.0,78,0.00,,OVC029,0.01,VWS V14.01,2013-07-31 17:48:00,
2013-07-31 13:53:00,72.4,65.2,30.07,South,190,4.0,5.0,78,0.00,,OVC029,0.01,VWS V14.01,2013-07-31 17:53:00,
2013-07-31 13:58:00,72.7,64.7,30.07,SSW,212,2.0,9.0,76,0.00,,OVC029,0.01,VWS V14.01,2013-07-31 17:58:00,
2013-07-31 14:03:00,73.3,64.9,30.07,SSE,155,4.0,9.0,75,0.00,,OVC034,0.01,VWS V14.01,2013-07-31 18:03:00,
2013-07-31 14:08:00,73.8,65.4,30.07,SSE,160,8.0,10.0,75,0.00,,OVC034,0.01,VWS V14.01,2013-07-31 18:08:00,
2013-07-31 14:13:00,73.7,65.3,30.07,South,174,5.0,9.0,75,0.00,,OVC034,0.01,VWS V14.01,2013-07-31 18:13:00,
2013-07-31 14:18:00,73.4,65.0,30.07,South,186,4.0,11.0,75,0.00,,OVC034,0.01,VWS V14.01,2013-07-31 18:18:00,
2013-07-31 14:23:00,72.7,65.4,30.07,SSW,200,5.0,8.0,78,0.00,,OVC034,0.01,VWS V14.01,2013-07-31 18:23:00,
2013-07-31 14:28:00,71.9,65.4,30.07,South,191,5.0,8.0,80,0.00,,OVC034,0.01,VWS V14.01,2013-07-31 18:28:00,
2013-07-31 14:33:00,71.4,64.9,30.07,SSW,210,7.0,12.0,80,0.00,,OVC044,0.01,VWS V14.01,2013-07-31 18:33:00,
2013-07-31 14:38:00,71.1,65.3,30.07,South,174,2.0,4.0,82,0.00,,OVC044,0.01,VWS V14.01,2013-07-31 18:38:00,
2013-07-31 14:43:00,71.1,65.3,30.07,SE,145,2.0,6.0,82,0.00,,OVC044,0.01,VWS V14.01,2013-07-31 18:43:00,
2013-07-31 14:48:00,71.0,64.9,30.07,South,190,3.0,6.0,81,0.00,,OVC044,0.01,VWS V14.01,2013-07-31 18:48:00,
2013-07-31 14:53:00,70.9,64.8,30.07,SSW,207,3.0,6.0,81,0.00,,OVC044,0.01,VWS V14.01,2013-07-31 18:53:00,
2013-07-31 14:58:00,71.5,65.4,30.06,SSE,156,3.0,7.0,81,0.00,,OVC044,0.01,VWS V14.01,2013-07-31 18:58:00,
2013-07-31 15:03:00,71.8,64.9,30.06,South,180,2.0,6.0,79,0.00,,OVC032,0.01,VWS V14.01,2013-07-31 19:03:00,
2013-07-31 15:08:00,72.5,65.6,30.06,West,279,6.0,7.0,79,0.00,,OVC032,0.01,VWS V14.01,2013-07-31 19:08:00,
2013-07-31 15:13:00,73.0,65.7,30.06,South,173,11.0,11.0,78,0.00,,OVC032,0.01,VWS V14.01,2013-07-31 19:13:00,
2013-07-31 15:18:00,73.4,65.8,30.06,SSW,207,5.0,9.0,77,0.00,,OVC032,0.01,VWS V14.01,2013-07-31 19:18:00,
2013-07-31 15:23:00,73.0,65.4,30.06,South,180,6.0,9.0,77,0.00,,OVC032,0.01,VWS V14.01,2013-07-31 19:23:00,
2013-07-31 15:28:00,72.7,65.8,30.06,South,174,6.0,7.0,79,0.00,,OVC032,0.01,VWS V14.01,2013-07-31 19:28:00,
2013-07-31 15:33:00,72.4,65.9,30.06,South,184,2.0,11.0,80,0.00,,OVC032,0.01,VWS V14.01,2013-07-31 19:33:00,
2013-07-31 15:38:00,72.0,65.5,30.05,South,176,2.0,6.0,80,0.00,,OVC032,0.01,VWS V14.01,2013-07-31 19:38:00,
2013-07-31 15:43:00,71.8,65.3,30.05,SSE,148,4.0,6.0,80,0.00,,OVC032,0.01,VWS V14.01,2013-07-31 19:43:00,
2013-07-31 15:48:00,71.7,65.2,30.05,South,172,4.0,8.0,80,0.00,,OVC030,0.01,VWS V14.01,2013-07-31 19:48:00,
2013-07-31 15:53:00,71.8,64.9,30.05,SSE,151,7.0,8.0,79,0.00,,OVC030,0.01,VWS V14.01,2013-07-31 19:53:00,
2013-07-31 15:58:00,71.9,64.7,30.05,SW,229,5.0,9.0,78,0.00,,OVC030,0.01,VWS V14.01,2013-07-31 19:58:00,
2013-07-31 16:03:00,72.4,65.5,30.05,SSW,200,5.0,8.0,79,0.00,,OVC032,0.01,VWS V14.01,2013-07-31 20:03:00,
2013-07-31 16:08:00,72.8,65.9,30.05,SW,221,7.0,7.0,79,0.00,,OVC032,0.01,VWS V14.01,2013-07-31 20:08:00,
2013-07-31 16:13:00,72.8,65.2,30.05,WSW,248,8.0,10.0,77,0.00,,OVC032,0.01,VWS V14.01,2013-07-31 20:13:00,
2013-07-31 16:18:00,72.6,65.3,30.04,SW,214,7.0,10.0,78,0.00,,OVC032,0.01,VWS V14.01,2013-07-31 20:18:00,
2013-07-31 16:23:00,72.4,65.5,30.05,SSW,211,4.0,7.0,79,0.00,,OVC032,0.01,VWS V14.01,2013-07-31 20:23:00,
2013-07-31 16:28:00,72.4,65.9,30.04,WSW,248,3.0,5.0,80,0.00,,OVC032,0.01,VWS V14.01,2013-07-31 20:28:00,
2013-07-31 16:33:00,72.6,65.7,30.05,South,177,3.0,8.0,79,0.00,,OVC033,0.01,VWS V14.01,2013-07-31 20:33:00,
2013-07-31 16:38:00,72.1,64.9,30.04,SSW,198,9.0,12.0,78,0.00,,OVC033,0.01,VWS V14.01,2013-07-31 20:38:00,
2013-07-31 16:43:00,71.6,64.8,30.05,SSW,200,7.0,15.0,79,0.00,,OVC033,0.01,VWS V14.01,2013-07-31 20:43:00,
2013-07-31 16:48:00,70.6,63.8,30.05,WSW,238,5.0,9.0,79,0.00,,OVC029,0.01,VWS V14.01,2013-07-31 20:48:00,
2013-07-31 16:53:00,70.2,63.8,30.04,South,187,6.0,10.0,80,0.00,,OVC029,0.01,VWS V14.01,2013-07-31 20:53:00,
2013-07-31 16:58:00,70.1,64.0,30.04,SW,218,0.0,5.0,81,0.00,,OVC029,0.01,VWS V14.01,2013-07-31 20:58:00,
2013-07-31 17:03:00,70.1,64.0,30.04,SSE,167,3.0,6.0,81,0.00,,OVC048,0.01,VWS V14.01,2013-07-31 21:03:00,
2013-07-31 17:08:00,70.2,64.1,30.04,SSE,150,4.0,7.0,81,0.00,,OVC048,0.01,VWS V14.01,2013-07-31 21:08:00,
2013-07-31 17:13:00,70.1,64.0,30.04,South,172,4.0,7.0,81,0.00,,OVC048,0.01,VWS V14.01,2013-07-31 21:13:00,
2013-07-31 17:18:00,69.9,64.2,30.04,SSE,149,2.0,4.0,82,0.00,,OVC048,0.01,VWS V14.01,2013-07-31 21:18:00,
2013-07-31 17:23:00,70.1,64.4,30.04,SSW,207,4.0,4.0,82,0.00,,OVC048,0.01,VWS V14.01,2013-07-31 21:23:00,
2013-07-31 17:28:00,70.2,64.1,30.04,SSE,158,4.0,7.0,81,0.00,,OVC048,0.01,VWS V14.01,2013-07-31 21:28:00,
2013-07-31 17:33:00,70.6,64.5,30.03,SSE,158,3.0,6.0,81,0.00,,OVC035,0.01,VWS V14.01,2013-07-31 21:33:00,
2013-07-31 17:38:00,71.0,64.5,30.03,SSE,153,2.0,6.0,80,0.00,,OVC035,0.01,VWS V14.01,2013-07-31 21:38:00,
2013-07-31 17:43:00,71.3,64.5,30.03,South,185,5.0,5.0,79,0.00,,OVC035,0.01,VWS V14.01,2013-07-31 21:43:00,
2013-07-31 17:48:00,71.8,65.3,30.03,East,80,5.0,5.0,80,0.00,,OVC055,0.01,VWS V14.01,2013-07-31 21:48:00,
2013-07-31 17:53:00,71.8,65.3,30.02,East,87,3.0,3.0,80,0.00,,OVC055,0.01,VWS V14.01,2013-07-31 21:53:00,
2013-07-31 17:58:00,71.8,65.3,30.02,ESE,113,3.0,4.0,80,0.00,,OVC055,0.01,VWS V14.01,2013-07-31 21:58:00,
2013-07-31 18:03:00,71.9,65.4,30.02,SSE,165,2.0,3.0,80,0.00,,BKN055,0.01,VWS V14.01,2013-07-31 22:03:00,
2013-07-31 18:08:00,72.7,66.2,30.02,South,179,0.0,4.0,80,0.00,,BKN055,0.01,VWS V14.01,2013-07-31 22:08:00,
2013-07-31 18:13:00,73.1,65.8,30.01,ESE,116,4.0,5.0,78,0.00,,BKN055,0.01,VWS V14.01,2013-07-31 22:13:00,
2013-07-31 18:18:00,73.4,66.5,30.01,SSW,204,1.0,3.0,79,0.00,,BKN055,0.01,VWS V14.01,2013-07-31 22:18:00,
2013-07-31 18:23:00,73.8,65.8,30.01,SSW,211,5.0,7.0,76,0.00,,BKN055,0.01,VWS V14.01,2013-07-31 22:23:00,
2013-07-31 18:28:00,73.5,66.2,30.01,South,174,6.0,7.0,78,0.00,,BKN055,0.01,VWS V14.01,2013-07-31 22:28:00,
2013-07-31 18:33:00,73.2,65.9,30.00,SSW,200,3.0,7.0,78,0.00,,BKN050,0.01,VWS V14.01,2013-07-31 22:33:00,
2013-07-31 18:38:00,72.9,65.7,30.00,SSW,194,4.0,7.0,78,0.00,,BKN050,0.01,VWS V14.01,2013-07-31 22:38:00,
2013-07-31 18:43:00,72.6,65.7,30.00,South,186,4.0,5.0,79,0.00,,BKN050,0.01,VWS V14.01,2013-07-31 22:43:00,
2013-07-31 18:48:00,72.4,65.5,30.00,SSE,156,2.0,3.0,79,0.00,,OVC040,0.01,VWS V14.01,2013-07-31 22:48:00,
2013-07-31 18:53:00,72.3,65.8,30.00,South,191,4.0,4.0,80,0.00,,OVC040,0.01,VWS V14.01,2013-07-31 22:53:00,
2013-07-31 18:58:00,72.1,65.6,30.00,WSW,246,0.0,3.0,80,0.00,,OVC040,0.01,VWS V14.01,2013-07-31 22:58:00,
2013-07-31 19:03:00,72.0,65.5,30.00,SSW,208,3.0,3.0,80,0.00,,OVC036,0.01,VWS V14.01,2013-07-31 23:03:00,
2013-07-31 19:08:00,71.9,65.8,30.00,SSW,198,6.0,7.0,81,0.00,,OVC036,0.01,VWS V14.01,2013-07-31 23:08:00,
2013-07-31 19:13:00,71.8,65.7,30.00,SSW,197,0.0,3.0,81,0.00,,OVC036,0.01,VWS V14.01,2013-07-31 23:13:00,
2013-07-31 19:18:00,71.7,65.6,30.00,South,185,2.0,3.0,81,0.00,,OVC036,0.01,VWS V14.01,2013-07-31 23:18:00,
2013-07-31 19:23:00,71.7,65.6,30.00,SSE,152,1.0,2.0,81,0.00,,OVC036,0.01,VWS V14.01,2013-07-31 23:23:00,
2013-07-31 19:28:00,71.6,65.1,30.00,SE,139,2.0,5.0,80,0.00,,OVC036,0.01,VWS V14.01,2013-07-31 23:28:00,
2013-07-31 19:33:00,71.6,65.5,30.00,South,179,2.0,3.0,81,0.00,,OVC038,0.01,VWS V14.01,2013-07-31 23:33:00,
2013-07-31 19:38:00,71.5,65.4,30.00,SSE,150,0.0,1.0,81,0.00,,OVC038,0.01,VWS V14.01,2013-07-31 23:38:00,
2013-07-31 19:43:00,71.4,64.9,30.00,ESE,108,1.0,3.0,80,0.00,,OVC038,0.01,VWS V14.01,2013-07-31 23:43:00,
2013-07-31 19:48:00,71.2,65.1,29.99,East,95,0.0,1.0,81,0.00,,OVC037,0.01,VWS V14.01,2013-07-31 23:48:00,
2013-07-31 19:53:00,71.1,65.0,29.99,South,190,0.0,1.0,81,0.00,,OVC037,0.01,VWS V14.01,2013-07-31 23:53:00,
2013-07-31 19:58:00,71.1,65.3,29.99,SSW,208,2.0,2.0,82,0.00,,OVC037,0.01,VWS V14.01,2013-07-31 23:58:00,
2013-07-31 20:03:00,71.0,64.9,29.99,SSE,153,1.0,3.0,81,0.00,,OVC037,0.01,VWS V14.01,2013-08-01 00:03:00,
2013-07-31 20:08:00,70.8,65.0,29.99,South,174,1.0,2.0,82,0.00,,OVC037,0.01,VWS V14.01,2013-08-01 00:08:00,
2013-07-31 20:13:00,70.6,64.8,29.99,South,174,1.0,2.0,82,0.00,,OVC037,0.01,VWS V14.01,2013-08-01 00:13:00,
2013-07-31 20:18:00,70.5,65.1,29.99,SSE,153,1.0,2.0,83,0.00,,OVC037,0.01,VWS V14.01,2013-08-01 00:18:00,
2013-07-31 20:23:00,70.3,64.9,29.99,SSW,203,1.0,3.0,83,0.00,,OVC037,0.01,VWS V14.01,2013-08-01 00:23:00,
2013-07-31 20:28:00,70.2,65.1,29.99,SSE,156,0.0,2.0,84,0.00,,OVC037,0.01,VWS V14.01,2013-08-01 00:28:00,
2013-07-31 20:33:00,70.1,65.1,29.99,ESE,113,1.0,2.0,84,0.00,,OVC037,0.01,VWS V14.01,2013-08-01 00:33:00,
2013-07-31 20:38:00,69.9,65.2,29.99,SE,134,2.0,2.0,85,0.00,,OVC037,0.01,VWS V14.01,2013-08-01 00:38:00,
2013-07-31 20:43:00,69.6,64.9,29.99,SSE,157,2.0,3.0,85,0.00,,OVC037,0.01,VWS V14.01,2013-08-01 00:43:00,
2013-07-31 20:48:00,69.5,65.1,29.99,South,176,2.0,4.0,86,0.00,,OVC037,0.01,VWS V14.01,2013-08-01 00:48:00,
2013-07-31 20:53:00,69.4,65.0,29.99,South,181,2.0,2.0,86,0.00,,OVC037,0.01,VWS V14.01,2013-08-01 00:53:00,
2013-07-31 20:58:00,69.3,64.9,29.99,SSE,155,0.0,3.0,86,0.00,,OVC037,0.01,VWS V14.01,2013-08-01 00:58:00,
2013-07-31 21:03:00,69.3,64.9,29.99,SSW,197,0.0,1.0,86,0.00,,OVC039,0.01,VWS V14.01,2013-08-01 01:03:00,
2013-07-31 21:08:00,69.3,64.9,29.99,SSW,195,1.0,1.0,86,0.00,,OVC039,0.01,VWS V14.01,2013-08-01 01:08:00,
2013-07-31 21:13:00,69.3,65.3,29.99,SSW,197,0.0,1.0,87,0.00,,OVC039,0.01,VWS V14.01,2013-08-01 01:13:00,
2013-07-31 21:18:00,69.3,65.3,29.99,South,172,1.0,2.0,87,0.00,,OVC039,0.01,VWS V14.01,2013-08-01 01:18:00,
2013-07-31 21:23:00,69.2,65.2,29.99,SE,143,1.0,1.0,87,0.00,,OVC039,0.01,VWS V14.01,2013-08-01 01:23:00,
2013-07-31 21:28:00,69.1,65.1,29.99,SE,133,1.0,2.0,87,0.00,,OVC039,0.01,VWS V14.01,2013-08-01 01:28:00,
2013-07-31 21:33:00,69.1,65.4,29.99,SSE,166,1.0,2.0,88,0.00,,OVC070,0.01,VWS V14.01,2013-08-01 01:33:00,
2013-07-31 21:38:00,69.0,65.3,29.99,SW,224,2.0,2.0,88,0.00,,OVC070,0.01,VWS V14.01,2013-08-01 01:38:00,
2013-07-31 21:43:00,68.9,65.2,29.99,SW,214,1.0,4.0,88,0.00,,OVC070,0.01,VWS V14.01,2013-08-01 01:43:00,
2013-07-31 21:48:00,68.9,65.2,29.99,SSE,165,1.0,2.0,88,0.00,,OVC070,0.01,VWS V14.01,2013-08-01 01:48:00,
2013-07-31 21:53:00,68.8,65.1,29.99,SSE,162,2.0,3.0,88,0.00,,OVC070,0.01,VWS V14.01,2013-08-01 01:53:00,
2013-07-31 21:58:00,68.8,65.1,29.99,South,174,0.0,2.0,88,0.00,,OVC070,0.01,VWS V14.01,2013-08-01 01:58:00,
2013-07-31 22:03:00,68.9,65.2,29.99,SSE,153,2.0,2.0,88,0.00,,OVC049,0.01,VWS V14.01,2013-08-01 02:03:00,
2013-07-31 22:08:00,68.8,65.1,30.00,SSW,211,0.0,2.0,88,0.00,,OVC049,0.01,VWS V14.01,2013-08-01 02:08:00,
2013-07-31 22:13:00,68.8,65.1,30.00,South,170,3.0,3.0,88,0.00,,OVC049,0.01,VWS V14.01,2013-08-01 02:13:00,
2013-07-31 22:18:00,68.8,65.1,30.00,SSW,197,5.0,5.0,88,0.00,,OVC049,0.01,VWS V14.01,2013-08-01 02:18:00,
2013-07-31 22:23:00,68.8,65.1,30.00,SSW,200,1.0,3.0,88,0.00,,OVC049,0.01,VWS V14.01,2013-08-01 02:23:00,
2013-07-31 22:28:00,68.8,65.1,30.00,SSE,163,0.0,1.0,88,0.00,,OVC049,0.01,VWS V14.01,2013-08-01 02:28:00,
2013-07-31 22:33:00,68.8,65.4,30.00,SSE,148,2.0,2.0,89,0.00,,OVC049,0.01,VWS V14.01,2013-08-01 02:33:00,
2013-07-31 22:38:00,68.8,65.4,30.00,South,177,1.0,3.0,89,0.00,,OVC049,0.01,VWS V14.01,2013-08-01 02:38:00,
2013-07-31 22:43:00,68.8,65.4,30.00,SSE,151,1.0,2.0,89,0.00,,OVC049,0.01,VWS V14.01,2013-08-01 02:43:00,
2013-07-31 22:48:00,68.7,65.3,30.00,South,186,3.0,3.0,89,0.00,,OVC037,0.01,VWS V14.01,2013-08-01 02:48:00,
2013-07-31 22:53:00,68.6,65.6,30.00,SSE,155,1.0,3.0,90,0.00,,OVC037,0.01,VWS V14.01,2013-08-01 02:53:00,
2013-07-31 22:58:00,68.5,65.5,30.00,SSE,155,3.0,4.0,90,0.00,,OVC037,0.01,VWS V14.01,2013-08-01 02:58:00,
2013-07-31 23:03:00,68.4,65.4,29.99,SSW,195,2.0,4.0,90,0.00,,RA,0.01,VWS V14.01,2013-08-01 03:03:00,
2013-07-31 23:08:00,68.4,65.4,29.99,South,181,3.0,4.0,90,0.00,,RA,0.01,VWS V14.01,2013-08-01 03:08:00,
2013-07-31 23:13:00,68.3,65.3,29.99,South,190,2.0,4.0,90,0.00,,RA,0.01,VWS V14.01,2013-08-01 03:13:00,
2013-07-31 23:18:00,68.3,65.6,29.99,SSE,162,0.0,3.0,91,0.00,,RA,0.01,VWS V14.01,2013-08-01 03:18:00,
2013-07-31 23:23:00,68.3,65.6,29.99,SSW,193,3.0,4.0,91,0.00,,RA,0.01,VWS V14.01,2013-08-01 03:23:00,
2013-07-31 23:28:00,68.3,65.6,29.99,SSW,207,1.0,4.0,91,0.00,,RA,0.01,VWS V14.01,2013-08-01 03:28:00,
2013-07-31 23:33:00,68.2,65.5,29.99,SW,217,5.0,6.0,91,0.00,,-RA,0.01,VWS V14.01,2013-08-01 03:33:00,
2013-07-31 23:38:00,68.2,65.5,29.98,SSW,205,2.0,3.0,91,0.00,,-RA,0.01,VWS V14.01,2013-08-01 03:38:00,
2013-07-31 23:43:00,68.1,65.7,29.98,SSW,204,1.0,3.0,92,0.00,,-RA,0.01,VWS V14.01,2013-08-01 03:43:00,
2013-07-31 23:48:00,68.0,65.6,29.98,SSW,203,1.0,3.0,92,0.00,,OVC036,0.01,VWS V14.01,2013-08-01 03:48:00,
2013-07-31 23:53:00,67.9,65.8,29.98,SSE,160,2.0,2.0,93,0.00,,OVC036,0.01,VWS V14.01,2013-08-01 03:53:00,
2013-07-31 23:58:00,67.7,65.6,29.98,SSE,158,0.0,2.0,93,0.00,,OVC036,0.01,VWS V14.01,2013-08-01 03:58:00,